Back to catalog

SL-6 R/B(2)

AliveHEO
NORAD 32705·ROCKET BODY·🇷🇺 Russia

Launched Sep 22, 1977 from Baikonur Cosmodrome

Loading…

Next Passes (next 24 hours)

TLE

FreshSource: Space-Track

Epoch: Sep 8, 2026, 18:36 UTC

1 32705U 77093E   26251.77549295  .00000620  00000-0  00000+0 0  9994
2 32705  51.7912 126.7680 6863410 278.9204  15.0270  0.25808650 12039

Track SL-6 R/B(2) in real time with AllMySat

Download on the App Store